Regional Weather Roundup
Issued by NWS Upton, NY

Current Version | Previous Version | Graphics & Text | Print | Product List | Glossary Off
Versions: 1 2 3 4 5 6 7 8 9 10 11 12 13 14 15 16 17 18 19 20 21 22 23 24 25 26 27 28 29 30 31 32 33 34 35 36 37 38 39 40 41 42 43 44 45 46 47 48 49 50

000
ASUS41 KOKX 041908
RWROKX

REGIONAL WEATHER ROUNDUP
NATIONAL WEATHER SERVICE NEW YORK NY
300 PM EDT MON MAY 04 2015

NOTE: "FAIR" INDICATES FEW OR NO CLOUDS BELOW 12,000 FEET WITH NO
SIGNIFICANT WEATHER AND/OR OBSTRUCTIONS TO VISIBILITY.

NYZ071-072-176-178-NJZ106-104-042000-
NEW YORK CITY METRO AREA


CITY           SKY/WX    TMP DP  RH WIND       PRES   REMARKS
CENTRAL PARK   SUNNY     81  44  27 S10G20    30.18F
LAGUARDIA APRT MOSUNNY   79  44  28 S21       30.15F
KENNEDY INTL   MOSUNNY   74  46  36 S18       30.19F
NEWARK/LIBERTY MOSUNNY   85  38  18 S18G25    30.14F
BRNX BOT. GARD   N/A     79  46  31 SE7       30.17R
TETERBORO      MOSUNNY   84  40  21 S14G23    30.13F
$$

NYZ177-179-078>081-042000-
LONG ISLAND NEW YORK

CITY           SKY/WX    TMP DP  RH WIND       PRES   REMARKS
FARMINGDALE    SUNNY     74  46  36 SW14      30.19F
ISLIP          MOSUNNY   72  45  37 S14       30.18F
SHIRLEY        SUNNY     70  45  40 S13       30.20F
WESTHAMPTON    SUNNY     68  46  45 SW12      30.21F
MONTAUK POINT    N/A     66  47  50 S12G20    30.21S
$$

NYZ052-065-067-042000-
HUDSON VALLEY

CITY           SKY/WX    TMP DP  RH WIND       PRES   REMARKS
WHITE PLAINS   MOSUNNY   80  42  25 S18G28    30.15F
NEWBURGH       MOSUNNY   82  41  23 S17G29    30.13F
MONTGOMERY     SUNNY     85  42  22 SW16G28   30.10F
POUGHKEEPSIE   MOSUNNY   86  37  17 SW13G25   30.09F
ALBANY         PTSUNNY   85  37  18 S12G23    30.05F
$$

NJZ001-105-106-008-010-013-015-019>022-104-042000-
NEW JERSEY

CITY           SKY/WX    TMP DP  RH WIND       PRES   REMARKS
NEWARK/LIBERTY MOSUNNY   85  38  18 S18G25    30.14F
TETERBORO      MOSUNNY   84  40  21 S14G23    30.13F
CALDWELL       SUNNY     84  37  18 SW12G20   30.14F
MORRISTOWN     MOSUNNY   84  39  20 SW14G25   30.14F
SOMERVILLE     SUNNY     84  39  20 SW8G16    30.12F
SUSSEX         SUNNY     83  41  22 SW12G18   30.14F
ANDOVER          N/A     82  38  20 SW12G21   30.14F
TRENTON        MOSUNNY   82  41  23 SW15G25   30.16F
MILLVILLE      SUNNY     83  42  23 SW14G21   30.21F
ATLANTIC CITY  MOSUNNY   81  43  26 S13G23    30.21S
WRIGHTSTOWN    SUNNY     83  41  22 W14G24    30.15F
TOMS RIVER     MOSUNNY   84  39  20 CALM      30.17S
BELMAR         PTSUNNY   82  45  26 S7        30.17F
$$

PAZ047>061-062-071-042000-
EASTERN PENNSYLVANIA

CITY           SKY/WX    TMP DP  RH WIND       PRES   REMARKS
PHILADELPHIA   MOSUNNY   85  42  22 SW18      30.18F
ALLENTOWN      MOSUNNY   84  42  22 SW12G22   30.15F
SCRANTON       MOSUNNY   83  38  20 SW15G30   30.12F
$$

CTZ002-004>006-009-010-012-RIZ004-006-007-MAZ004-011-015-042000-
SOUTHERN NEW ENGLAND
 IN CT

CITY           SKY/WX    TMP DP  RH WIND       PRES   REMARKS
BRADLEY INTL   PTSUNNY   84  41  21 S18G25    30.09F
HARTFORD       SUNNY     82  42  24 MISG      30.11F
DANBURY        MOSUNNY   79  40  24 SW12G21   30.15F
WTRBRY/OXFORD  MOSUNNY   79  43  27 SW12G23   30.16F
BRIDGEPORT     SUNNY     67  53  61 E8        30.16F
MERIDEN        SUNNY     82  46  28 S21G28    30.13F
NEW HAVEN      SUNNY     69  49  48 SE10      30.16F
CHESTER        FAIR      77  46  33 SW16G22   30.18F
GROTON         SUNNY     63  49  60 S8        30.18F
WILLIMANTIC    MOSUNNY   82  41  23 S17G29    30.13F

 IN RI

CITY           SKY/WX    TMP DP  RH WIND       PRES   REMARKS
PROVIDENCE     MOSUNNY   75  48  38 SE15      30.14F
BLOCK ISLAND   SUNNY     61  46  59 SW20G28   30.20F
WESTERLY       SUNNY     68  45  43 S13G22    30.20F

 IN MA

CITY           SKY/WX    TMP DP  RH WIND       PRES   REMARKS
BOSTON         MOSUNNY   82  43  25 S20       30.09F
WORCESTER      MOSUNNY   79  34  19 SW22G29   30.13F
WESTFIELD      MOSUNNY   86  36  16 SW20G26   30.08F
PROVINCETOWN   SUNNY     66  48  52 S14G20    30.17S
NANTUCKET      SUNNY     57  50  77 S13       30.22F
$$

ANZ330-335-338-340-345-350-353-355-042000-
COASTAL MARINE OBSERVATIONS


STATION/POSITION TIME  SKY/WX   TEMP    WIND        PRES    VSBY  WAVE
                                AIR SEA DIR/SP/G                  HT/PER
                 (UTC)          (F)     (DEG/KT/KT) (MB)    (MI)  (FT/S)
NY HARB ENTRANCE 1850            58 53  180/ 16/ 17 1021.6          3/ 8
4S FIRE IS       1803               51                N/A           3/ 8
20S FIRE ISLAND  1850            54 49  180/ 14/ 16 1022.6          3/ 8
GREAT SOUTH BAY  1800            56 60  220/  8/ 10   N/A
23SW MTP         1850            51 46  210/ 12/ 14 1023.0          3/ 8
HUDSON CANYON    NOT AVBL
EXECUTION ROCKS  NOT AVBL
WESTERN LI SOUND NOT AVBL
CENTRAL LI SOUND NOT AVBL
EASTERN LI SOUND 1800            51     140/  2/  4   N/A
ROBBINS REEF     1800            66     180/ 17/ 18 1020.6
$$


>>>>>>>>>>>>>>>>>>>>>>>>>>>> KEY <<<<<<<<<<<<<<<<<<<<<<<<<<<
>                                                          <
>     SKY/WX - SKY CONDITION/PRESENT WEATHER               <
>     TMP    - TEMPERATURE IN FAHRENHEIT                   <
>     DP     - DEWPOINT IN FAHRENHEIT                      <
>     RH     - RELATIVE HUMIDITY IN PERCENT                <
>     WIND   - DIRECTION AND SPEED IN MPH                  <
>     PRES   - MEAN SEA LEVEL PRESSURE IN INCHES OF HG     <
>     WCI    - WIND CHILL INDEX                            <
>     VSB    - VISIBILITY IN MILES                         <
>     HX     - HEAT INDEX                                  <
>     TC     - TEMPERATURE IN CELSIUS                      <
>     VRB    - VARIABLE WIND DIRECTION                     <
>                                                          <
>>>>>>>>>>>>>>>>>>>>>>>>>>>> KEY <<<<<<<<<<<<<<<<<<<<<<<<<<<





USA.gov is the U.S. government's official web portal to all federal, state and local government web resources and services.